STARLINK-33829, 63496

Orbit data source: Space-Track

STARLINK-33829, 63496 is a payload satellite owned by SpaceX/Seattle (US) in LEO that was launched on Mon, 07 Apr 2025 UTC via an FALCON 9 launch vehicle from the Air Force Western Test Range (AFWTR). Payload-class satellites include a variety of spacecraft equipped with specific instruments for various scientific and technological missions. These include communications satellites like Starlink; space stations such as the ISS; scientific satellites like the Hubble; Earth observation satellites from companies like Planet Labs, Umbra, and HawkEye 360; GPS; miniature CubeSats for education and research; and military/defense satellites.

Loading next visibility...
Identifier
63496, 2025-071D
Orbit
LEO
Last TLE update
11 hours ago
Origin
Manufacturer
SpaceX/Seattle
Mission
Operational Commercial Communications
Bus & Motor
STARLINK V2MO, Unknown motor
Mass
575 kg wet, ~530 kg dry
Launch date (UTC)
2025-04-07 (3 months ago)
Launch vehicle
FALCON 9
Launch site
Air Force Western Test Range (AFWTR)
Object type
Payload
Rocket body
Debris
Shape & HBR
Box + 1 Pan, 29 m
Radar Cross Section
41.120 m², Large (>1 m²)

Expand to show TLE details & history

TLE from 11 hours ago
0 STARLINK-33829
1 63496U 25071D   25186.49744188  .00037966  00000-0  95439-3 0  9994
2 63496  53.1565 208.8249 0001145  68.0133 292.0993 15.39620296 14855
Epoch: 2025-07-05T11:56Z
TLE epoch observation values (Epoch: 2025-07-05T11:56:18.978Z)
Latitude
-0.00005°
Longitude
106.01115°
Altitude
447.84 km
Speed
7.645 km/s
True Right ascension
13h 55m 17s
True Declination
0° 00' 00"
Sunlit
Object was in daylight at epoch
Visualization orbit readout
Latitude
-10.72167°
Longitude
95.77002°
Altitude
449.938 km
Speed
7.643 km/s
Apparent Right ascension
16h 20m 43s
Apparent Declination
-52° 16' 27"
Sunlit
Object is in daylight
Visualization observer readout
Local Sidereal Time
10:43:25
Azimuth
136.671° SSE
Elevation
-27.458°
Doppler factor
1
Orbital elements
Apogee altitude
448.271 km
Perigee altitude
446.708 km
Semi-major axis
6,825.626 km
Eccentricity
0.00011
Inclination
53.1565°
RAAN
208.8249°
Arg. of periapsis
68.0133°
True anomaly
Unknown
Mean anomaly
292.0993°
Eccentric anomaly
Unknown
Mean motion
3.84884 °/min
Orbital period
93.53 mins
BSTAR
0.00095439
Loading maneuver chart data...
Loading SW <> Apogee altitude chart data...
Loading historical data...
Loading historical data...
Loading historical data...
Loading historical data...
Loading historical data...
Loading historical data...
Loading historical data...

STARLINK-33829 Visibility forecast

Observer location: undefined°, undefined°

Span
Click to sort rows by Start time (UTC) header in descending order
Start Az.
Max El. time (UTC)
Max El. Az.
Max El.
End time (UTC)
End Az.
5 mins2025-07-06 03:41:10.610Z194.952° SSW2025-07-06 03:43:10.610Z148.773° SSE30.333°2025-07-06 03:46:10.610Z69.306° E
4 mins2025-07-06 05:19:10.610Z286.418° WNW2025-07-06 05:21:10.610Z340.628° N24.352°2025-07-06 05:23:10.610Z23.69° NE
4 mins2025-07-06 10:14:10.610Z341.891° N2025-07-06 10:16:10.610Z43.847° NE28.365°2025-07-06 10:18:10.610Z90.485° ESE
4 mins2025-07-06 11:51:10.610Z276.025° WNW2025-07-06 11:53:10.610Z225.339° WSW24.878°2025-07-06 11:55:10.610Z178.139° S
|